Temperature
16 16 16 16 16 16 16 16 16 16 16 16 16 16 16 16 16 15 15 15 15 15 15 15 15 15 15 15 15 15 15 15 14 14 14 14 14 14 14 13 14 14 14
16 16 16 16 16 16 16 16 16 16 16 16 16 16 16 16 15 15 15 15 15 15 15 15 15 15 15 15 15 15 15 14 14 14 14 13 13 13 13 13 13 13 13
16 16 16 16 16 16 16 16 16 16 16 16 15 15 15 15 15 15 15 15 15 15 15 14 14 14 15 15 15 15 14 14 13 13 13 13 13 13 13 13 13 13 13
15 15 16 16 16 16 15 15 15 15 15 15 15 15 15 15 15 15 15 15 14 14 14 14 14 14 14 15 14 14 14 13 13 13 13 13 13 13 13 13 13 13 13
15 15 15 15 15 15 15 15 15 15 15 15 15 15 15 15 15 14 14 14 14 14 14 14 14 14 14 14 14 14 14 13 13 13 12 12 12 12 12 12 12 12 12
14 15 15 15 15 15 15 15 15 15 15 15 14 14 14 14 14 14 14 14 14 14 14 14 14 14 14 14 14 14 13 13 13 12 12 12 12 12 12 12 12 12 12
14 14 14 14 14 14 14 14 14 14 14 14 14 14 14 14 14 14 14 14 14 14 14 14 14 14 14 14 14 13 13 12 12 12 12 12 12 12 12 12 12 12 12
14 14 14 14 14 14 14 14 14 14 14 14 14 14 14 14 14 14 14 13 13 13 13 13 14 14 14 13 13 13 12 12 12 12 12 12 12 12 12 12 12 11 11
13 13 14 13 13 14 14 14 14 14 14 14 14 14 13 13 13 13 13 13 13 13 13 13 13 13 13 13 13 13 12 12 11 11 12 12 12 12 12 12 11 11 11
13 13 13 13 13 13 13 13 13 13 13 13 13 13 13 13 13 13 13 13 13 13 13 13 13 13 13 13 12 12 12 11 11 11 11 11 11 11 11 11 11 11 11
13 12 12 13 13 13 13 13 13 13 13 13 13 13 13 13 13 13 13 13 12 12 12 12 12 12 12 12 12 12 11 11 11 11 11 11 11 11 11 11 11 11 11
12 12 12 12 12 12 12 12 12 12 12 12 12 12 12 12 12 12 12 12 12 12 12 12 12 12 12 12 11 11 11 11 11 11 11 11 11 11 11 11 11 10 10
11 11 11 11 12 12 12 12 12 12 12 12 12 12 12 11 12 12 12 12 12 12 12 12 12 12 11 11 11 11 11 11 10 11 11 11 11 10 10 10 10 10 10
11 11 11 11 11 11 11 11 11 11 11 11 11 11 11 11 11 11 11 11 11 11 11 11 11 11 11 11 11 11 11 10 10 10 10 10 10 10 10 10 10 10 10
10 10 11 11 11 11 11 11 11 11 11 11 11 11 11 11 11 11 11 11 11 11 11 11 11 11 10 10 10 10 10 10 10 10 10 10 10 10 10 10 10 10 10
10 10 10 10 10 10 10 10 10 10 10 11 11 11 10 10 10 10 10 11 11 11 11 11 11 10 10 10 10 10 10 10 10 10 9 10 10 10 9 10 10 10 9
9 9 9 10 10 10 10 10 10 10 10 10 10 10 10 10 10 10 10 10 11 11 10 10 10 10 10 10 10 10 10 9 9 9 9 9 9 9 9 9 9 9 9
9 9 9 9 9 9 9 9 9 10 10 10 10 10 10 10 10 10 10 10 10 10 10 10 10 10 10 10 10 9 9 9 9 9 9 9 9 9 9 9 9 9 9
8 8 8 9 9 9 9 9 9 9 9 9 10 10 10 9 10 10 10 10 10 10 10 10 9 9 9 9 9 9 9 9 9 9 9 9 9 9 9 9 9 9 9
8 8 8 8 8 8 8 8 8 8 9 9 9 9 9 9 9 9 9 9 9 9 9 9 9 9 9 9 9 9 9 9 9 9 8 8 8 8 8 8 8 8 8
7 7 7 7 8 8 8 8 8 8 8 8 8 9 9 9 9 9 9 9 9 9 9 9 9 8 8 8 8 8 8 8 8 8 8 8 8 8 8 8 8 8 8
7 7 7 7 7 7 7 7 7 7 7 7 8 8 8 8 9 8 8 8 8 8 8 8 8 8 8 8 8 7 7 7 8 8 8 8 8 8 8 8 7 8 7
7 7 7 6 6 6 7 6 7 7 7 7 7 7 7 8 8 8 8 8 8 7 7 8 8 8 8 7 7 7 7 7 7 7 7 7 7 7 7 7 7 7 7
7 7 6 6 6 6 6 6 6 6 6 6 6 7 7 7 7 7 7 7 7 7 7 7 7 7 7 7 7 7 7 7 7 6 6 6 6 7 7 7 7 7 7
6 6 6 6 6 6 6 6 6 6 6 6 6 6 6 6 6 6 6 6 6 6 7 7 6 7 7 7 7 7 7 7 7 6 6 6 6 6 6 7 7 7 7
6 6 5 5 5 5 5 5 5 5 5 5 5 5 6 6 6 6 6 6 6 6 6 6 6 6 6 6 6 6 6 6 6 6 6 5 5 6 6 6 6 6 6
Wind_Speed
5 9 8 7 7 7 7 7 7 7 7 7 7 7 7 7 8 9 9 9 9 9 9 9 9 9 9 9 9 9 9 9 10 11 11 10 10 10 9 9 10 10 11
6 10 9 7 7 6 6 6 6 6 6 6 6 6 6 7 7 8 8 9 9 8 8 8 9 8 8 8 8 8 8 8 8 8 9 9 8 9 9 9 9 9 10
6 9 9 7 6 6 6 6 7 6 6 6 5 5 5 6 6 7 7 8 8 8 7 8 8 8 8 8 8 7 6 6 5 5 6 7 7 8 8 9 8 9 9
6 8 8 7 6 6 6 6 6 6 6 6 5 5 4 5 6 6 6 7 7 7 7 7 7 7 7 7 7 6 5 4 3 3 4 6 6 7 8 8 7 7 8
6 8 9 8 6 5 5 5 5 6 5 5 5 5 5 4 5 5 6 6 6 6 6 7 7 7 6 6 6 4 3 2 3 3 5 9 8 7 7 7 6 6 7
6 8 8 7 5 5 4 4 4 5 5 4 4 5 4 4 5 5 5 6 6 6 6 6 6 6 6 5 4 3 2 1 2 3 6 8 7 6 6 6 5 5 5
5 7 7 6 5 4 4 3 3 3 4 3 4 4 4 4 4 5 5 5 6 6 6 5 6 6 5 4 3 2 1 2 1 4 7 7 6 5 5 5 4 4 4
5 6 6 5 5 4 3 3 3 3 3 3 3 4 4 4 4 5 5 5 5 5 5 5 6 5 5 4 2 1 2 3 1 4 6 7 6 4 4 3 3 3 3
5 5 5 4 4 3 3 3 3 3 2 2 3 4 3 3 4 4 4 5 4 4 5 5 5 5 5 4 2 1 3 4 3 3 5 5 4 3 2 2 2 2 2
5 5 4 4 3 2 2 3 3 3 2 2 3 3 3 3 3 4 4 4 4 4 4 4 4 5 5 4 2 2 3 4 2 2 5 4 3 2 1 1 1 1 1
4 4 4 3 3 2 1 2 3 3 3 3 2 3 3 3 3 4 4 4 5 5 4 4 4 5 5 4 3 3 4 3 1 3 5 4 3 2 1 1 1 1 1
3 3 3 3 3 2 1 1 1 2 2 2 2 2 2 1 2 3 5 5 5 5 5 5 4 5 5 5 4 4 4 4 1 4 5 4 3 2 2 1 2 2 2
2 3 3 3 3 2 1 0 0 1 2 2 1 1 2 2 2 2 3 4 4 5 4 5 5 5 5 5 5 5 5 2 2 4 5 5 4 3 3 2 3 3 3
4 3 3 4 3 2 1 0 0 0 1 1 1 1 1 1 1 1 2 3 3 4 3 4 4 5 5 5 5 5 3 2 2 5 6 6 5 4 4 4 4 4 4
3 3 2 2 3 3 2 1 1 0 1 1 2 2 2 1 2 1 2 2 3 3 3 3 3 3 3 4 4 3 2 3 2 3 5 6 6 6 5 5 5 5 5
3 3 2 2 2 3 2 1 1 1 0 1 2 3 3 2 2 2 2 2 2 2 3 3 3 3 3 2 3 3 3 3 2 3 5 5 6 7 7 6 5 5 5
3 3 3 2 2 2 2 2 2 1 1 1 1 3 3 2 2 2 2 2 2 2 3 2 2 2 2 2 3 3 3 3 3 3 5 5 5 6 7 7 6 6 6
3 3 3 2 2 2 2 2 2 2 1 1 2 2 2 2 3 2 2 2 2 2 2 2 2 2 1 2 2 2 2 2 3 3 4 5 5 5 5 7 7 7 7
2 2 2 1 1 2 2 2 2 2 2 2 2 2 2 2 2 2 2 2 2 1 2 2 2 2 2 1 2 2 2 2 2 3 3 4 5 5 4 5 6 7 6
2 2 2 2 2 1 1 1 1 1 1 2 2 2 2 2 1 1 2 2 1 1 2 2 3 2 2 2 1 2 2 3 3 3 3 3 4 5 5 4 4 5 5
2 1 1 2 2 2 1 1 1 1 2 1 2 3 3 2 1 1 1 2 1 2 3 3 3 3 2 1 1 1 3 3 3 3 2 2 3 4 4 4 4 4 3
2 2 2 2 2 2 2 2 2 2 2 2 2 2 3 2 2 2 2 2 2 2 2 3 2 2 2 2 1 1 1 2 3 3 2 3 3 2 3 4 4 4 3
2 2 3 3 3 3 2 1 1 1 1 2 2 2 2 3 2 1 2 1 1 2 2 3 3 3 3 3 3 3 2 3 1 2 3 3 2 2 2 3 4 4 4
2 2 3 3 3 3 2 2 2 2 2 2 2 2 2 2 2 1 1 1 0 1 2 3 3 3 4 4 3 3 3 2 2 1 2 2 2 3 3 3 3 4 4
2 2 2 3 3 3 3 3 3 2 2 2 1 2 2 1 2 1 1 0 1 1 1 2 3 3 3 4 4 2 3 2 2 2 3 3 3 3 3 3 3 3 3
1 1 2 3 4 3 3 3 3 3 3 2 2 2 2 1 2 1 1 1 1 1 2 2 3 3 3 3 3 3 3 3 3 3 3 3 3 3 3 3 3 3 2
Wind_Direction
107 109 106 93 89 94 94 94 97 100 98 99 104 108 108 108 109 108 106 104 102 101 101 99 96 92 86 82 80 78 76 78 80 79 76 76 79 79 74 72 80 76 79
112 116 112 99 92 92 97 94 94 98 100 100 107 116 119 116 115 116 116 113 110 107 104 100 97 95 91 87 85 84 82 83 86 87 83 75 79 82 78 72 77 81 79
99 111 113 101 97 94 97 96 93 94 100 101 103 119 126 126 124 122 120 118 115 112 109 105 101 96 91 89 88 87 89 91 87 84 87 86 87 88 87 84 82 82 80
102 110 114 104 102 98 100 104 100 94 98 102 105 115 131 133 130 129 124 121 120 115 112 110 106 101 96 93 92 92 93 93 75 72 79 92 90 92 92 88 87 83 81
97 105 114 108 103 101 102 106 111 106 103 109 111 114 127 136 136 134 134 127 121 118 115 114 111 107 104 103 100 99 101 79 55 59 74 83 82 91 92 86 84 84 80
93 97 113 113 106 98 99 108 116 119 111 111 119 116 125 129 133 139 139 134 126 122 122 124 120 114 112 111 109 107 92 23 35 55 80 87 87 88 94 94 89 88 85
86 94 110 120 119 110 98 110 118 125 125 117 130 125 124 131 130 131 134 134 133 129 132 133 128 123 122 119 121 124 357 339 71 78 78 85 92 87 90 91 91 90 91
74 87 106 122 128 124 114 117 122 125 139 133 139 136 131 133 135 137 138 134 134 139 141 143 138 133 131 127 127 150 319 322 44 91 91 92 98 94 93 101 94 88 84
64 76 87 104 121 128 131 135 126 122 134 155 168 151 141 134 140 145 146 145 143 145 145 146 148 144 141 140 145 233 300 308 343 84 101 102 109 108 100 108 114 113 87
59 68 70 70 71 83 136 150 139 134 130 146 177 151 138 137 148 156 155 154 148 146 141 139 155 157 152 153 173 242 276 293 329 69 98 111 132 152 133 142 143 146 145
43 44 52 57 55 56 77 138 146 164 166 145 151 143 143 154 153 159 159 153 150 151 156 159 161 168 164 167 195 240 263 271 106 90 101 131 155 177 174 185 195 184 208
30 25 40 45 33 32 56 79 166 182 175 160 161 171 172 166 160 167 165 164 166 167 170 177 174 170 174 180 200 230 252 245 166 115 125 154 180 200 206 242 218 213 233
14 28 30 28 20 22 29 62 54 213 191 188 180 174 183 153 144 149 150 163 169 174 173 177 178 196 197 186 190 215 237 225 164 128 146 169 193 209 219 245 229 223 236
2 25 27 19 15 11 9 279 195 206 180 187 186 194 220 147 158 160 163 184 182 193 186 183 205 217 212 191 203 218 213 209 159 134 157 181 196 215 228 242 238 230 236
356 6 23 17 10 4 3 308 289 235 210 207 200 212 217 199 187 183 188 195 206 204 191 201 218 212 218 209 215 218 223 222 174 148 161 188 201 216 230 240 248 238 243
352 356 5 9 356 1 355 325 281 265 248 253 220 215 218 218 205 186 195 187 213 202 205 212 217 216 226 212 220 221 221 226 191 162 166 186 204 218 231 238 247 244 249
339 345 344 342 350 347 335 320 323 313 275 257 257 225 218 223 217 192 193 197 208 208 214 218 226 214 222 223 221 227 218 213 206 190 179 179 187 211 226 235 248 250 253
329 330 329 337 342 323 324 320 330 328 320 301 297 280 239 226 222 199 188 208 217 202 200 206 209 215 220 226 230 240 238 223 224 208 196 183 177 185 208 227 242 253 250
303 300 311 309 319 308 313 321 334 323 313 320 311 299 278 247 229 211 196 215 214 200 202 217 213 199 208 231 233 242 248 243 235 225 207 190 175 171 178 207 232 248 248
287 292 305 301 309 303 301 301 331 324 306 325 318 302 286 281 256 227 207 210 208 198 213 207 215 216 206 209 242 266 270 254 239 227 214 194 176 182 185 196 210 237 249
286 286 305 300 303 323 320 305 287 285 283 284 292 309 297 279 273 242 227 204 195 212 221 216 214 213 217 194 205 290 289 261 242 235 202 187 197 194 190 194 201 209 233
273 293 305 298 290 288 281 282 267 266 263 253 277 299 309 303 289 264 205 206 208 226 236 231 214 220 228 203 191 212 260 274 264 243 216 212 212 197 206 209 202 202 220
271 277 281 275 275 275 272 280 293 297 285 290 284 280 298 304 299 296 255 216 203 212 232 235 227 226 219 230 209 192 198 221 273 251 231 218 209 210 219 212 203 204 222
268 274 277 273 274 265 248 235 236 251 259 272 268 274 288 301 306 334 299 253 220 227 243 247 250 247 221 227 239 239 230 195 187 242 259 237 230 225 222 220 207 206 220
263 280 287 285 276 265 247 229 230 243 256 271 264 269 288 297 294 306 313 233 235 246 251 256 262 248 232 231 235 236 251 250 204 204 242 248 262 248 232 219 202 202 211
253 259 267 276 275 270 248 227 222 230 241 247 266 271 286 299 302 300 300 248 231 239 249 257 257 256 249 245 243 226 220 217 219 209 228 236 246 256 246 224 210 185 192
Height
1503 1503 1504 1504 1505 1507 1508 1509 1510 1511 1512 1513 1513 1514 1515 1516 1517 1518 1518 1519 1520 1520 1521 1521 1522 1522 1522 1523 1523 1523 1523 1523 1524 1524 1524 1524 1525 1525 1525 1526 1526 1526 1526
1502 1502 1503 1504 1505 1506 1507 1508 1509 1510 1511 1512 1513 1514 1515 1516 1517 1518 1518 1519 1520 1520 1521 1521 1522 1522 1522 1523 1523 1523 1523 1524 1524 1525 1525 1525 1525 1525 1525 1526 1526 1526 1526
1501 1502 1502 1504 1505 1506 1507 1508 1509 1510 1511 1512 1513 1514 1515 1516 1517 1518 1518 1519 1520 1520 1521 1521 1522 1522 1522 1523 1523 1523 1524 1524 1524 1525 1525 1525 1525 1525 1526 1526 1526 1526 1526
1501 1501 1502 1503 1504 1505 1506 1508 1509 1510 1510 1511 1512 1513 1514 1515 1516 1517 1518 1519 1519 1520 1521 1521 1522 1522 1522 1522 1523 1523 1524 1524 1525 1525 1525 1525 1525 1526 1526 1526 1526 1526 1526
1501 1501 1502 1503 1504 1505 1506 1507 1508 1509 1510 1511 1512 1513 1514 1515 1516 1516 1517 1518 1519 1520 1520 1521 1521 1521 1522 1522 1522 1523 1524 1524 1525 1525 1525 1525 1525 1525 1525 1526 1526 1526 1526
1501 1501 1501 1502 1503 1504 1505 1506 1507 1508 1509 1510 1511 1512 1513 1514 1515 1516 1517 1517 1518 1519 1519 1520 1520 1521 1521 1522 1522 1523 1523 1524 1524 1525 1525 1525 1525 1525 1525 1525 1525 1525 1525
1500 1500 1501 1502 1503 1504 1504 1505 1506 1507 1508 1509 1510 1511 1512 1513 1514 1515 1516 1517 1517 1518 1519 1519 1520 1520 1520 1521 1521 1522 1523 1523 1524 1524 1524 1524 1524 1525 1525 1525 1525 1525 1525
1499 1500 1500 1501 1501 1502 1503 1504 1505 1506 1506 1507 1508 1509 1511 1512 1513 1514 1515 1516 1516 1517 1518 1518 1519 1519 1520 1520 1521 1521 1522 1522 1523 1523 1523 1523 1523 1524 1524 1524 1524 1524 1524
1498 1499 1499 1499 1500 1501 1502 1503 1503 1504 1505 1506 1507 1508 1509 1510 1511 1512 1513 1514 1515 1516 1516 1517 1517 1518 1518 1519 1520 1520 1521 1521 1522 1522 1522 1522 1522 1522 1522 1523 1523 1522 1523
1497 1497 1498 1498 1499 1500 1500 1501 1502 1502 1503 1504 1505 1506 1507 1509 1510 1511 1512 1513 1514 1514 1515 1515 1516 1517 1517 1518 1518 1519 1519 1520 1520 1520 1520 1520 1521 1521 1521 1521 1521 1521 1521
1496 1496 1496 1497 1497 1498 1499 1500 1500 1501 1502 1502 1503 1504 1506 1507 1508 1509 1510 1511 1512 1513 1513 1514 1514 1515 1516 1516 1517 1518 1518 1518 1519 1519 1518 1519 1519 1519 1519 1519 1519 1519 1519
1495 1495 1495 1495 1495 1496 1497 1497 1498 1499 1500 1501 1502 1503 1504 1505 1506 1507 1508 1509 1510 1511 1512 1512 1513 1513 1514 1514 1515 1516 1516 1517 1517 1517 1516 1517 1517 1517 1517 1517 1517 1517 1517
1494 1494 1494 1494 1494 1494 1495 1495 1496 1497 1498 1498 1500 1501 1502 1503 1504 1505 1506 1507 1508 1508 1509 1510 1511 1511 1512 1512 1513 1514 1514 1515 1515 1514 1514 1514 1515 1515 1515 1515 1515 1515 1515
1492 1492 1492 1492 1492 1492 1492 1493 1494 1494 1495 1496 1497 1499 1500 1501 1501 1502 1503 1504 1505 1506 1507 1508 1508 1509 1510 1510 1511 1511 1512 1512 1512 1512 1512 1512 1512 1513 1513 1512 1512 1512 1512
1490 1490 1490 1490 1491 1491 1490 1491 1491 1492 1493 1494 1495 1496 1497 1498 1499 1500 1501 1501 1502 1503 1504 1505 1506 1507 1507 1508 1508 1509 1509 1510 1510 1509 1509 1509 1510 1510 1510 1510 1510 1510 1510
1488 1488 1488 1488 1488 1489 1488 1488 1489 1490 1491 1491 1492 1493 1494 1495 1496 1497 1497 1498 1499 1500 1501 1502 1503 1504 1504 1505 1505 1506 1506 1507 1506 1506 1506 1506 1506 1507 1507 1507 1507 1507 1507
1486 1486 1486 1486 1486 1486 1486 1486 1486 1487 1488 1488 1489 1490 1491 1492 1493 1494 1494 1495 1496 1497 1498 1499 1500 1500 1501 1501 1502 1502 1503 1503 1503 1502 1503 1503 1503 1503 1504 1504 1504 1504 1504
1484 1484 1484 1483 1483 1483 1483 1483 1483 1484 1484 1485 1486 1487 1488 1489 1489 1490 1491 1492 1493 1494 1495 1495 1496 1497 1497 1497 1498 1498 1499 1499 1500 1499 1499 1499 1499 1499 1500 1500 1501 1500 1500
1481 1481 1480 1480 1480 1480 1480 1480 1480 1480 1481 1481 1482 1483 1484 1485 1486 1487 1487 1488 1489 1490 1491 1491 1492 1493 1493 1494 1494 1494 1494 1494 1495 1496 1495 1495 1495 1495 1496 1496 1497 1497 1496
1479 1478 1478 1477 1477 1477 1477 1477 1476 1477 1477 1478 1478 1479 1480 1481 1482 1483 1484 1484 1485 1486 1486 1487 1488 1488 1489 1489 1490 1490 1490 1490 1491 1491 1491 1491 1491 1491 1492 1492 1493 1493 1493
1476 1475 1475 1474 1474 1474 1473 1473 1472 1472 1473 1474 1475 1475 1476 1477 1478 1479 1480 1481 1481 1481 1482 1483 1483 1484 1484 1485 1486 1485 1485 1486 1486 1487 1487 1487 1487 1487 1488 1489 1489 1489 1489
1473 1472 1472 1471 1470 1470 1470 1470 1469 1469 1470 1470 1471 1472 1472 1473 1474 1475 1476 1476 1477 1478 1478 1478 1479 1479 1480 1481 1481 1481 1481 1482 1482 1482 1483 1483 1483 1483 1484 1484 1485 1485 1485
1469 1469 1468 1468 1467 1467 1467 1467 1466 1466 1466 1466 1466 1467 1468 1469 1469 1470 1471 1472 1473 1473 1474 1474 1475 1475 1475 1476 1477 1478 1477 1476 1477 1478 1478 1479 1479 1479 1479 1480 1480 1481 1481
1466 1466 1465 1464 1464 1463 1463 1463 1462 1462 1461 1462 1462 1463 1463 1465 1465 1466 1466 1467 1468 1469 1469 1470 1470 1470 1471 1471 1472 1473 1473 1472 1473 1472 1473 1474 1475 1475 1475 1476 1476 1476 1477
1462 1462 1462 1461 1461 1460 1460 1459 1459 1459 1459 1459 1459 1459 1460 1461 1462 1461 1462 1463 1464 1464 1465 1465 1465 1466 1466 1467 1467 1467 1468 1468 1468 1468 1468 1469 1470 1470 1471 1471 1472 1472 1472
1459 1459 1458 1458 1457 1457 1456 1456 1455 1456 1456 1456 1456 1456 1456 1457 1457 1457 1457 1458 1459 1460 1460 1461 1461 1461 1461 1462 1462 1462 1463 1463 1463 1464 1464 1464 1464 1465 1466 1467 1467 1467 1468